Location: Big Prairie
(40.6673°N, 82.0952°W)
Time: 00:16:03
(UTC+00:00)

Cosmos 841 Rocket - Pass Details

Date: 05 July 2022
Orbit: 745 x 772 km, 74.0° (Epoch: 15 August)

Event Time Altitude Azimuth Distance (km) Brightness Sun altitude
Exits shadow 07:30:30 39° 249° (WSW) 1,122 4.0 -20.9°
Maximum altitude 07:31:54 49° 293° (WNW) 962 3.9 -20.8°
Drops below altitude 10° 07:36:55 10° 9° (N) 2,283 7.0 -20.3°
Sets 07:39:23 0° 15° (NNE) 3,216 8.1 -20.1°
